Location: Peterborough
(44.3091°N, 78.3197°W)
Time: 04:12:28
(UTC-04:00)

deb Explorer IX - All Passes

Search period start: 02 April 2023 00:00
Search period end: 12 April 2023 00:00
Orbit: 536 x 1027 km, 38.8° (Epoch: 01 April)

Date Brightness Start Highest point End Pass type
(mag) Time Alt. Az. Time Alt. Az. Time Alt. Az.
02 Apr - 03:35:42 10° SSE 03:37:00 11° SSE 03:38:15 10° SE visible
02 Apr - 05:17:59 10° SW 05:22:15 28° SSE 05:26:06 10° ESE visible
02 Apr - 07:03:20 10° WSW 07:07:43 41° S 07:11:40 10° ESE daylight
02 Apr - 08:49:20 10° WSW 08:53:05 29° SSW 08:56:35 10° SE daylight
03 Apr - 04:42:23 10° SW 04:46:46 27° SSE 04:50:41 10° ESE visible
03 Apr - 06:27:41 10° WSW 06:32:14 41° S 06:36:19 10° ESE daylight
03 Apr - 08:13:42 10° WSW 08:17:38 31° SSW 08:21:18 10° SE daylight
03 Apr - 10:01:10 10° SW 10:02:39 12° SSW 10:04:06 10° S daylight
04 Apr - 04:06:45 10° SW 04:11:12 26° SSE 04:15:12 10° ESE visible
04 Apr - 05:51:56 10° WSW 05:56:41 42° S 06:00:53 10° ESE visible
04 Apr - 07:37:57 10° WSW 07:42:08 34° SSW 07:45:57 10° SE daylight
04 Apr - 09:25:01 10° WSW 09:27:11 14° SSW 09:29:17 10° S daylight
05 Apr - 03:31:02 10° SSW 03:35:33 25° SSE 03:39:37 10° ESE visible
05 Apr - 05:16:07 10° WSW 05:21:04 42° S 05:25:25 10° ESE visible
05 Apr - 07:02:08 10° WSW 07:06:34 37° SSW 07:10:32 10° SE daylight
05 Apr - 08:48:57 10° WSW 08:51:40 16° SSW 08:54:15 10° S daylight
06 Apr - 02:55:17 10° SSW 02:59:50 23° SSE 03:03:57 10° ESE visible
06 Apr - 04:40:13 10° WSW 04:45:22 41° S 04:49:52 10° ESE visible
06 Apr - 06:26:14 10° WSW 06:30:55 40° S 06:35:04 10° ESE daylight
06 Apr - 08:12:54 10° WSW 08:16:05 19° SSW 08:19:04 10° SSE daylight
07 Apr - 02:19:31 10° SSW 02:24:03 22° SSE 02:28:12 10° ESE visible
07 Apr - 04:04:14 10° WSW 04:09:35 41° S 04:14:14 10° E visible
07 Apr - 05:50:14 10° WSW 05:55:11 42° S 05:59:31 10° ESE visible
07 Apr - 07:36:48 10° WSW 07:40:26 22° SSW 07:43:45 10° SSE daylight
08 Apr - 01:43:42 10° SSW 01:48:12 21° SSE 01:52:20 10° ESE night (unlit)
08 Apr - 03:28:13 10° SW 03:33:43 40° SSE 03:38:33 10° E visible
08 Apr - 05:14:10 10° WSW 05:19:22 45° S 05:23:54 10° ESE visible
08 Apr - 07:00:40 10° WSW 07:04:42 25° SSW 07:08:20 10° SSE daylight
09 Apr - 01:07:53 10° SSW 01:12:16 19° SSE 01:16:21 10° ESE night (unlit)
09 Apr - 02:52:08 10° SW 02:57:47 39° SSE 03:02:46 10° E visible
09 Apr - 04:38:02 10° WSW 04:43:28 47° S 04:48:12 10° ESE visible
09 Apr - 06:24:28 10° W 06:28:53 28° SSW 06:32:49 10° SE daylight
10 Apr - 00:32:05 10° S 00:36:17 18° SSE 00:40:14 10° ESE night (unlit)
10 Apr - 02:16:00 10° SW 02:21:46 38° SSE 02:26:54 10° E visible
10 Apr - 04:01:49 10° WSW 04:07:30 48° S 04:12:25 10° ESE visible
10 Apr - 05:48:13 10° W 05:53:00 32° SSW 05:57:13 10° SE visible
10 Apr - 07:36:56 10° SW 07:37:51 10° SW 07:38:45 10° SSW daylight
10 Apr - 23:56:18 10° S 00:00:14 16° SSE 00:03:59 10° ESE night (unlit)
11 Apr - 01:39:50 10° SW 01:45:41 36° SSE 01:50:57 10° E night (unlit)
11 Apr - 03:25:33 10° WSW 03:31:26 49° S 03:36:34 10° ESE visible
11 Apr - 05:11:54 10° W 05:17:01 35° SSW 05:21:30 10° SE visible
11 Apr - 06:59:40 10° WSW 07:01:59 13° SW 07:04:10 10° S daylight
11 Apr - 23:20:35 10° S 23:24:07 15° SE 23:27:32 10° ESE night (unlit)
